CZ-4 DEB, 26150

Orbit data source: Space-Track

CZ-4 DEB, 26150 is space debris in SSO originally from a launch on Thu, 14 Oct 1999 UTC launched from the Taiyaun Space Center, China (TSC). Debris objects in space refer to the collection of defunct objects orbiting the Earth. Examples of debris include non-operational satellites, rocket bodies, and fragments generated from explosions, collisions, or faulty payload assembly.

Loading next visibility...
Identifier
26150, 1999-057AL
Orbit
SSO
Country
Flag of CNCN / PRC
Related business
Manufacturer
Unknown
Mission
Spacecraft
Bus & Motor
Unknown
Mass
Unknown
Launch date (UTC)
1999-10-14 (27 years ago)
Launch vehicle
Unknown
Launch site
Taiyaun Space Center, China (TSC)
Object type
Payload
Rocket body
Debris
Shape & HBR
Unknown shape, 0.1 m
Radar Cross Section
Medium (>0.1 m² and <1 m²)

Expand to show TLE details & history
Last TLE update: 3 days ago

TLE from 3 days ago
0 CZ-4 DEB
1 26150U 99057AL  26171.18169943  .00000409  00000-0  26788-3 0  9999
2 26150  99.0956 250.0396 0341062  70.1529 321.6619 13.82035138315819
Epoch: 2026-06-20T04:21Z
TLE epoch observation values (Epoch: 2026-06-20T04:21:38.830Z)
Latitude
28.95277°
Longitude
-88.8262°
Altitude
767.37 km
Speed
7.571 km/s
True Right ascension
16h 19m 56s
True Declination
28° 48' 27"
Sunlit
Object was in full shadow at epoch
Visualization orbit readout
Latitude
Unknown
Longitude
Unknown
Altitude
Unknown
Speed
Unknown
Apparent Right ascension
Unknown
Apparent Declination
Unknown
Sunlit
N/A
Visualization observer readout
Local Sidereal Time
05:36:34
Azimuth
Unknown
Elevation
Unknown
Doppler factor
Unknown
Orbital elements
Apogee altitude
1,203.968 km
Perigee altitude
703.833 km
Semi-major axis
7,332.038 km
Eccentricity
0.03411
Inclination
99.0956°
RAAN
250.0396°
Arg. of periapsis
70.1529°
True anomaly
319.15464°
Mean anomaly
321.6619°
Eccentric anomaly
320.41672°
Mean motion
3.45705 °/min
Orbital period
104.13 mins
BSTAR
0.00026788
Loading maneuver chart data...
Computing Atmospheric mass density...

Documentation

Showing up to 5 results
|